Location: Les Jeannots
(43.2262°N, 5.5774°E)
Time: 02:50:36
(UTC+00:00)

VEP-3 - Pass Details

Date: 05 July 2020
Orbit: 1025 x 33718 km, 23.7° (Epoch: 03 August)

Event Time Altitude Azimuth Distance (km) Brightness Sun altitude
Rises 19:51:57 0° 233° (SW) 4,080 5.9 -5.5°
Reaches altitude 10° 19:55:55 10° 205° (SSW) 2,803 4.8 -6.1°
Maximum altitude 19:58:56 14° 170° (S) 2,589 4.3 -6.5°
Drops below altitude 10° 20:02:31 10° 135° (SE) 3,394 4.6 -7.0°
Enters shadow 20:03:36 - 129° (SE) 3,771 4.8 -7.1°
